Flag for Norway Weather past 2 weeks in Gjøvik, Norway

Now
51 °F

Cool.


Feels Like: 51 °F
Forecast: 29 / 54 °F
Wind: 2 mph from West

Location: Lillehammer-Saetherengen


UV Index: 0 (Low)

Visibility: N/A


Pressure: 30.06 "Hg

Humidity: 28%

Dew point: 19 °F

Location of GjøvikLocation

Historic Weather in Gjøvik

°F

Gjøvik temperature yesterday

Maximum temperature yesterday: 46 °F (at 2:00 AM)
Minimum temperature yesterday: 39 °F (at 10:00 AM)
Average temperature yesterday: 42 °F

Past Weeks' High & Low Weather Summary

 TemperatureHumidityPressure
High57 °F (Apr 7, 4:00 PM)97% (Apr 7, 9:00 AM)30.31 "Hg (Apr 7, 9:00 AM)
Low26 °F (Apr 4, 8:00 AM)28% (Apr 18, 4:00 PM)29.21 "Hg (Apr 13, 5:00 AM)
Average39 °F70%29.81 "Hg
* Reported Apr 3 6:00 PM — Apr 18 6:00 PM, Gjøvik, Weather by CustomWeather, © 2014

Note: Actual official high and low records may vary slightly from our data, if they occured in-between our weather recording intervals... More about our weather records

Advertising

Historic Weather Conditions — Data for Previous 24 hours

 ConditionsComfort  
Time TempWeatherWind HumidityBarometerVisibility
6:00 PM
Apr 18
51 °FCool.2 mph28%30.06 "HgN/A
5:00 PM50 °FCool.3 mph29%30.04 "HgN/A
4:00 PM50 °FCool.2 mph28%30.03 "HgN/A
3:00 PM49 °FCool.3 mph29%30.02 "HgN/A
2:00 PM47 °FCool.6 mph34%30.00 "HgN/A
1:00 PM46 °FCool.7 mph35%29.98 "HgN/A
12:00 PM44 °FQuite cool.7 mph36%29.96 "HgN/A
11:00 AM43 °FQuite cool.8 mph42%29.93 "HgN/A
10:00 AM42 °FQuite cool.7 mph41%29.91 "HgN/A
9:00 AM40 °FQuite cool.12 mph45%29.88 "HgN/A
8:00 AM39 °FChilly.7 mph52%29.84 "HgN/A
7:00 AM38 °FChilly.9 mph57%29.79 "HgN/A
6:00 AM39 °FChilly.10 mph55%29.74 "HgN/A
5:00 AM40 °FChilly.10 mph54%29.69 "HgN/A
4:00 AM40 °FChilly.12 mph56%29.64 "HgN/A
3:00 AM41 °FQuite cool.10 mph58%29.60 "HgN/A
2:00 AM42 °FQuite cool.10 mph61%29.55 "HgN/A
Weather by CustomWeather, © 2014

See weather overview